Mc Cook Ben Nelson Regional Airport
KMCK : now visible

Airfield :











YOU CAN JOIN US ON...

 
LOGIN :

Register | Disclaimer

   EN    FR    IT 

 









Legend :    VFR   Marginal VFR   IFR   Intensive IFR   Very Intensive IFR
Visi :
Ceiling :
>= 8 km
>= 3000ft
5 to 8 km
1000 to 3000 ft
1500m to 5 km
500 to 1000 ft
800 to 1500m
200 to 500 ft
< 800m
< 200 ft
Symbols :   Thunderstorms  Fog  Heavy snow  Heavy precipitations  Wind > 20 kt






- Airport Elevation : 2583 ft


KMCK - Mc Cook Ben Nelson Regional

CURRENT METAR :
  • 262353Z AUTO 30005KT 10SM OVC095 M07/M13 A3033 RMK AO2 SLP314 T10671128 11061 21072 58008

EXPIRED METARs :
  • 262253Z AUTO 29006KT 10SM OVC100 M07/M13 A3035 RMK AO2 SLP322 T10671128
  • 262153Z AUTO 31007KT 10SM OVC095 M06/M13 A3034 RMK AO2 SLP317 T10611128

TAF KMCK
Valid from the 27 at 00:00 until the 28 at 00:00 UTC


262320Z 2700/2724 VRB04KT P6SM -SHSN SCT040 BKN100
FM270400 26007KT P6SM SKC
FM271500 23008KT P6SM SKC
KZDV FIR / North America



MET'MAP, your aeronautical weather chart ! - Copyright ORBIFLY December 2007 - Disclaimer

ORBIFLY MET'MAP TEAM :

Programming & Development : Alexandra Zaïnal
Concept & original design : Baudouin d'Aumeries
Assistance for programming : Marc-Olivier Méhu
Technical & hardware support : Manuel Goepfert

Contact : metmap@orbifly.com




SOURCES & CREDITS :

   NOAA       Earth
Advisory